Tracking 19709 objects as of 19-Jun-2019
HD Live streaming from Space Station
objects crossing your sky now

METEOR 2-8 DEB

Track METEOR 2-8 DEB now!
10-day predictions


NORAD ID: 36336
Int'l Code: 1982-025W
Perigee: 878.9 km
Apogee: 888.0 km
Inclination: 82.5 °
Period: 102.5 minutes
Semi major axis: 7254 km
RCS: 0.0095 m2 (small)
Launch date: March 25, 1982
Source: Commonwealth of Independent States (former USSR) (CIS)
Launch site: PLESETSK MISSILE AND SPACE COMPLEX (PKMTR)

Note: This is SATELLITE DEBRIS
aabbcc
Your satellite tracking list
Your tracking list is empty




NASA's NSSDC Master Catalog

Two Line Element Set (TLE):
1 36336U 82025W   19044.48635308 -.00007143 +00000-0 -44513-2 0  9999
2 36336 082.5450 318.0799 0006270 156.1431 213.5185 14.05054397750825
Source of the keplerian elements: AFSPC